Regional Weather Roundup
Issued by NWS

Home | Current Version | Previous Version | Text Only | Print | Product List | Glossary On
Versions: 1 2 3 4 5 6 7 8 9 10 11 12 13 14 15 16 17 18 19 20 21 22 23 24 25 26 27
000
ASUS42 KKEY 280110
RWRKEY

FLORIDA REGIONAL WEATHER ROUNDUP FOR THE FLORIDA KEYS
NATIONAL WEATHER SERVICE KEY WEST FLORIDA
900 PM EDT THU APR 27 2017

...SOUTH FLORIDA AND THE KEYS...

CITY           SKY/WX    TMP DP  RH WIND       PRES   REMARKS
FORT MYERS     CLEAR     79  72  79 S3        29.92R
SW REGIONAL AP CLEAR     77  69  76 SW6       29.93R
NAPLES         CLEAR     79  73  82 S5        29.93R
MIAMI          PTCLDY    81  74  79 SE8       29.95R
WEST KENDALL   CLEAR     80  74  81 SE8       29.95R
HOMESTEAD      CLEAR     79  78  96 SE7       29.94R
MARATHON       PTCLDY    81  77  88 SE10      29.93R
BOCA CHICA NAS PTCLDY    79  77  94 SE17      29.92S
KEY WEST INTL  PTCLDY    81  77  88 SE16      29.93R

...INTERNATIONAL WEATHER...

CITY           SKY/WX    TMP DP  RH WIND       PRES   REMARKS
NASSAU BAHAMAS PTCLDY    82  64  54 E7        30.01R
CANCUN MEXICO  MOCLDY    82  81  94 E15       29.81R HX  95
COZUMEL MEXICO PTCLDY    82  77  83 SE12      29.78R HX  91

ADJACENT COASTAL WATERS...

STATION/POSITION TIME  SKY/WX   TEMP    WIND        PRES    WAVE
                                AIR SEA DIR/SP/G            HT/PER
                 (UTC)          (F)     (DEG/KT/KT) (MB)    (FT/S)
PULASKI SHOAL LI 0000            79     110/ 11/ 12 1012.7R
SAND KEY         0050            79     140/ 14/ 17 1013.7R
LONG KEY         0000            80 82  140/ 16/ 18 1013.5R
MOLASSES REEF    0000            79 78  150/ 14/ 15 1013.9R
FOWEY ROCKS      0000            79 78  140/ 14/ 14 1014.2R
Buoy 42097       0100                                 N/A     4/ 7

$$




USA.gov is the U.S. government's official web portal to all federal, state and local government web resources and services.